Weather History for Somerville, NJ

Change the Weather History Date:

Wednesday, October 26, 2011

  Actual Average Record
Temperature  
Mean Temperature 52 °F -  
Max Temperature 64 °F 61 °F 82 °F (1963)
Min Temperature 39 °F 38 °F 22 °F (1952)
Degree Days  
Heating Degree Days 14    
Growing Degree Days 2 (Base 50)    
Moisture  
Dew Point 44 °F    
Average Humidity 83    
Maximum Humidity 97    
Minimum Humidity 54    
Precipitation  
Precipitation 0.00 in - - ()
Sea Level Pressure  
Sea Level Pressure 29.86 in    
Wind  
Wind Speed 1 mph (WSW)    
Max Wind Speed 4 mph    
Max Gust Speed -    
Visibility 10 miles    
Events      
Averages and records for this station are not official NWS values.
T = Trace of Precipitation, MM = Missing Value Source: NWS Daily Summary

Daily Weather History Graph

Daily Weather History Graph

Search for Another Location

Airport:

Trip Planner

Search our weather history database for the weather conditions in past years. The results will help you decide how hot, cold, wet, or windy it might be!

Date:

Astronomy

Oct. 26, 2011 Rise Set
Actual Time 7:21 AM EDT 6:03 PM EDT
Civil Twilight 6:53 AM EDT 6:31 PM EDT
Nautical Twilight 6:21 AM EDT 7:03 PM EDT
Astronomical Twilight 5:49 AM EDT 7:34 PM EDT
Moon 7:06 AM EDT (10/26) 5:43 PM EDT (10/26)
Length of Visible Light 11h 37m
Length of Day
10h 41m
Waning Crescent, 0% of the Moon is Illuminated
Oct 26
Waning Crescent
Oct 26
New
Nov 2
First Quarter
Nov 10
Full
Nov 18
Last Quarter

Hourly Weather History & Observations

Time (EDT) Temp. Windchill Dew Point Humidity Pressure Visibility Wind Dir Wind Speed Gust Speed Precip Events Conditions
12:53 AM 42.1 °F - 39.0 °F 89% 30.03 in 10.0 mi Calm Calm - N/A   Clear
1:53 AM 39.9 °F - 39.0 °F 97% 30.02 in 10.0 mi Calm Calm - N/A   Clear
2:53 AM 41.0 °F - 37.9 °F 89% 30.02 in 10.0 mi Calm Calm - N/A   Clear
3:53 AM 43.0 °F 41.3 °F 39.0 °F 86% 30.00 in 10.0 mi NW 3.5 mph - N/A   Clear
4:53 AM 39.9 °F - 39.0 °F 97% 29.97 in 10.0 mi Calm Calm - N/A   Clear
5:53 AM 39.9 °F - 37.9 °F 93% 29.95 in 10.0 mi Calm Calm - N/A   Clear
6:53 AM 39.2 °F - 37.4 °F 93% 29.92 in 10.0 mi Calm Calm - N/A   Clear
7:53 AM 43.0 °F - 39.0 °F 86% 29.93 in 10.0 mi Calm Calm - N/A   Clear
8:53 AM 45.0 °F - 41.0 °F 86% 29.93 in 10.0 mi Calm Calm - N/A   Clear
9:53 AM 48.0 °F - 44.1 °F 86% 29.92 in 10.0 mi Calm Calm - N/A   Clear
10:53 AM 51.1 °F - 43.0 °F 74% 29.88 in 10.0 mi North 3.5 mph - N/A   Clear
11:53 AM 52.0 °F - 44.1 °F 74% 29.86 in 10.0 mi Calm Calm - N/A   Mostly Cloudy
12:53 PM 54.0 °F - 45.0 °F 72% 29.85 in 10.0 mi Variable 3.5 mph - N/A   Mostly Cloudy
1:53 PM 57.0 °F - 45.0 °F 64% 29.81 in 10.0 mi Calm Calm - N/A   Partly Cloudy
2:53 PM 59.0 °F - 46.9 °F 64% 29.77 in 10.0 mi South 3.5 mph - N/A   Clear
3:53 PM 62.1 °F - 48.0 °F 60% 29.77 in 10.0 mi Calm Calm - N/A   Clear
4:53 PM 64.0 °F - 46.9 °F 54% 29.76 in 10.0 mi Variable 3.5 mph - N/A   Clear
5:53 PM 57.9 °F - 50.0 °F 75% 29.76 in 10.0 mi Calm Calm - N/A   Clear
6:53 PM 54.0 °F - 50.0 °F 86% 29.77 in 10.0 mi Calm Calm - N/A   Mostly Cloudy
7:53 PM 53.1 °F - 50.0 °F 89% 29.75 in 9.0 mi South 3.5 mph - N/A   Overcast
8:53 PM 53.1 °F - 50.0 °F 89% 29.75 in 10.0 mi Calm Calm - N/A   Scattered Clouds
9:53 PM 50.0 °F - 48.9 °F 96% 29.76 in 8.0 mi Calm Calm - N/A   Scattered Clouds
10:53 PM 50.0 °F - 48.0 °F 93% 29.75 in 9.0 mi Calm Calm - N/A   Partly Cloudy
11:53 PM 52.0 °F - 50.0 °F 93% 29.73 in 10.0 mi Calm Calm - N/A   Overcast